Location: Kalberh�ni
(46.4610°N, 7.2453°E)
Time: 23:03:30
(UTC+00:00)

deb Kosmos-2227 - Visible Passes

Search period start: 10 August 2022 00:00
Search period end: 20 August 2022 00:00
Orbit: 776 x 863 km, 70.9° (Epoch: 10 August)

Date Brightness Start Highest point End Pass type
(mag) Time Alt. Az. Time Alt. Az. Time Alt. Az.
10 Aug ? 01:32:57 10° NW 01:36:38 26° W 01:36:38 26° W visible
10 Aug ? 21:46:00 10° NNE 21:47:26 11° NNE 21:48:51 10° NE visible
10 Aug ? 23:27:13 10° NNW 23:32:30 44° NE 23:33:34 40° E visible
11 Aug ? 01:11:05 10° NW 01:14:52 29° W 01:14:52 29° W visible
11 Aug ? 23:05:37 10° NNW 23:10:46 38° NE 23:11:53 35° E visible
12 Aug ? 00:49:15 10° NW 00:53:12 34° W 00:53:12 34° W visible
12 Aug ? 22:44:01 10° NNW 22:49:01 34° NE 22:50:15 30° ENE visible
13 Aug ? 00:27:28 10° NW 00:31:33 39° WNW 00:31:33 39° WNW visible
13 Aug ? 22:22:25 10° N 22:27:14 29° NE 22:28:39 26° ENE visible
14 Aug ? 00:05:42 10° NW 00:09:58 45° WNW 00:09:58 45° WNW visible
14 Aug ? 22:00:51 10° N 22:05:27 26° NE 22:07:05 23° ENE visible
14 Aug ? 23:43:57 10° NNW 23:48:25 52° WNW 23:48:25 52° WNW visible
15 Aug ? 21:39:17 10° N 21:43:38 23° NE 21:45:35 19° ENE visible
15 Aug ? 23:22:14 10° NNW 23:26:54 61° WNW 23:26:54 61° WNW visible
16 Aug ? 21:17:45 10° N 21:21:49 20° NE 21:24:06 16° ENE visible
16 Aug ? 23:00:30 10° NNW 23:05:26 70° NW 23:05:26 70° NW visible
17 Aug ? 00:46:18 10° WNW 00:46:45 11° WNW 00:46:45 11° WNW visible
17 Aug ? 20:56:13 10° N 20:59:59 18° NE 21:02:39 13° ENE visible
17 Aug ? 22:38:48 10° NNW 22:43:59 76° N 22:43:59 76° N visible
18 Aug ? 00:24:00 10° WNW 00:25:18 13° WNW 00:25:18 13° WNW visible
18 Aug ? 20:34:44 10° N 20:38:07 16° NE 20:41:14 11° ENE visible
18 Aug ? 22:17:07 10° NNW 22:22:34 71° NE 22:22:34 71° NE visible
19 Aug ? 00:01:53 10° WNW 00:03:53 16° WNW 00:03:53 16° WNW visible
19 Aug ? 20:13:18 10° N 20:16:15 14° NE 20:19:12 10° ENE visible
19 Aug ? 21:55:27 10° NNW 22:01:00 62° ENE 22:01:10 61° ENE visible
19 Aug ? 23:39:52 10° NW 23:42:30 20° WNW 23:42:30 20° WNW visible
